Time,TemperatureF,DewpointF,PressureIn,WindDirection,WindDirectionDegrees,WindSpeedMPH,WindSpeedGustMPH,Humidity,HourlyPrecipIn,Conditions,Clouds,dailyrainin,SoftwareType,DateUTC
2013-02-05 00:00:00,17.5,7.4,29.91,SW,232,0.0,3.0,64,0.00,,,0.00,WeatherCatV1.10B1784,2013-02-05 05:00:00,
2013-02-05 00:05:00,17.4,7.7,29.91,SW,232,0.0,3.0,65,0.00,,,0.00,WeatherCatV1.10B1784,2013-02-05 05:05:00,
2013-02-05 00:10:00,17.4,7.7,29.91,SW,232,2.0,3.0,65,0.00,,,0.00,WeatherCatV1.10B1784,2013-02-05 05:10:00,
2013-02-05 00:15:00,17.8,7.4,29.91,SW,232,0.0,4.0,63,0.00,,,0.00,WeatherCatV1.10B1784,2013-02-05 05:15:00,
2013-02-05 00:20:00,18.0,7.6,29.91,SW,232,0.0,0.0,63,0.00,,,0.00,WeatherCatV1.10B1784,2013-02-05 05:20:00,
2013-02-05 00:25:00,18.0,7.9,29.91,SW,232,0.0,0.0,64,0.00,,,0.00,WeatherCatV1.10B1784,2013-02-05 05:25:00,
2013-02-05 00:30:00,17.9,7.8,29.91,SW,232,0.0,0.0,64,0.00,,,0.00,WeatherCatV1.10B1784,2013-02-05 05:30:00,
2013-02-05 00:35:00,17.9,8.2,29.91,SW,232,0.0,1.0,65,0.00,,,0.00,WeatherCatV1.10B1784,2013-02-05 05:35:00,
2013-02-05 00:40:00,18.0,8.2,29.91,SW,232,0.0,4.0,65,0.00,,,0.00,WeatherCatV1.10B1784,2013-02-05 05:40:00,
2013-02-05 00:45:00,18.4,7.9,29.91,WSW,246,0.0,4.0,63,0.00,,,0.00,WeatherCatV1.10B1784,2013-02-05 05:45:00,
2013-02-05 00:50:00,18.6,8.1,29.91,WSW,246,1.0,3.0,63,0.00,,,0.00,WeatherCatV1.10B1784,2013-02-05 05:50:00,
2013-02-05 00:55:00,18.8,8.3,29.91,WNW,283,0.0,3.0,63,0.00,,,0.00,WeatherCatV1.10B1784,2013-02-05 05:55:00,
2013-02-05 01:00:00,18.7,8.2,29.91,SW,232,3.0,4.0,63,0.00,,,0.00,WeatherCatV1.10B1784,2013-02-05 06:00:00,
2013-02-05 01:05:00,18.7,8.2,29.91,SW,223,6.0,7.0,63,0.00,,,0.00,WeatherCatV1.10B1784,2013-02-05 06:05:00,
2013-02-05 01:10:00,18.9,8.4,29.92,SW,224,0.0,4.0,63,0.00,,,0.00,WeatherCatV1.10B1784,2013-02-05 06:10:00,
2013-02-05 01:15:00,19.0,8.2,29.92,West,267,4.0,4.0,62,0.00,,,0.00,WeatherCatV1.10B1784,2013-02-05 06:15:00,
2013-02-05 01:20:00,19.2,8.3,29.92,WSW,246,0.0,4.0,62,0.00,,,0.00,WeatherCatV1.10B1784,2013-02-05 06:20:00,
2013-02-05 01:25:00,19.3,8.4,29.92,West,262,3.0,3.0,62,0.00,,,0.00,WeatherCatV1.10B1784,2013-02-05 06:25:00,
2013-02-05 01:30:00,19.4,8.5,29.92,WSW,251,0.0,6.0,62,0.00,,,0.00,WeatherCatV1.10B1784,2013-02-05 06:30:00,
2013-02-05 01:35:00,19.4,8.5,29.92,SW,235,2.0,10.0,62,0.00,,,0.00,WeatherCatV1.10B1784,2013-02-05 06:35:00,
2013-02-05 01:40:00,19.4,8.5,29.92,SW,229,0.0,2.0,62,0.00,,,0.00,WeatherCatV1.10B1784,2013-02-05 06:40:00,
2013-02-05 01:45:00,19.3,8.8,29.93,SW,229,0.0,0.0,63,0.00,,,0.00,WeatherCatV1.10B1784,2013-02-05 06:45:00,
2013-02-05 01:50:00,19.2,8.7,29.93,SW,230,2.0,2.0,63,0.00,,,0.00,WeatherCatV1.10B1784,2013-02-05 06:50:00,
2013-02-05 01:55:00,19.1,9.0,29.93,SW,229,0.0,3.0,64,0.00,,,0.00,WeatherCatV1.10B1784,2013-02-05 06:55:00,
2013-02-05 02:00:00,19.1,9.0,29.93,SW,229,0.0,0.0,64,0.00,,,0.00,WeatherCatV1.10B1784,2013-02-05 07:00:00,
2013-02-05 02:05:00,19.1,9.0,29.93,WSW,252,1.0,3.0,64,0.00,,,0.00,WeatherCatV1.10B1784,2013-02-05 07:05:00,
2013-02-05 02:10:00,19.1,8.6,29.92,SW,231,6.0,7.0,63,0.00,,,0.00,WeatherCatV1.10B1784,2013-02-05 07:10:00,
2013-02-05 02:15:00,19.1,9.0,29.92,West,271,0.0,1.0,64,0.00,,,0.00,WeatherCatV1.10B1784,2013-02-05 07:15:00,
2013-02-05 02:20:00,19.1,9.0,29.92,West,267,0.0,4.0,64,0.00,,,0.00,WeatherCatV1.10B1784,2013-02-05 07:20:00,
2013-02-05 02:25:00,19.1,9.0,29.92,West,267,0.0,0.0,64,0.00,,,0.00,WeatherCatV1.10B1784,2013-02-05 07:25:00,
2013-02-05 02:30:00,19.0,8.9,29.92,West,267,0.0,2.0,64,0.00,,,0.00,WeatherCatV1.10B1784,2013-02-05 07:30:00,
2013-02-05 02:35:00,18.9,8.8,29.92,West,267,0.0,0.0,64,0.00,,,0.00,WeatherCatV1.10B1784,2013-02-05 07:35:00,
2013-02-05 02:40:00,18.8,9.0,29.92,West,262,0.0,5.0,65,0.00,,,0.00,WeatherCatV1.10B1784,2013-02-05 07:40:00,
2013-02-05 02:45:00,18.7,8.9,29.92,West,262,0.0,0.0,65,0.00,,,0.00,WeatherCatV1.10B1784,2013-02-05 07:45:00,
2013-02-05 02:50:00,18.6,8.8,29.92,WSW,240,0.0,6.0,65,0.00,,,0.00,WeatherCatV1.10B1784,2013-02-05 07:50:00,
2013-02-05 02:55:00,18.7,8.9,29.92,WSW,239,0.0,4.0,65,0.00,,,0.00,WeatherCatV1.10B1784,2013-02-05 07:55:00,
2013-02-05 03:00:00,18.6,8.8,29.92,WSW,239,0.0,3.0,65,0.00,,,0.00,WeatherCatV1.10B1784,2013-02-05 08:00:00,
2013-02-05 03:05:00,18.6,8.8,29.92,WSW,239,3.0,3.0,65,0.00,,,0.00,WeatherCatV1.10B1784,2013-02-05 08:05:00,
2013-02-05 03:10:00,18.6,8.8,29.92,WSW,239,0.0,5.0,65,0.00,,,0.00,WeatherCatV1.10B1784,2013-02-05 08:10:00,
2013-02-05 03:15:00,18.7,8.9,29.93,WSW,239,0.0,0.0,65,0.00,,,0.00,WeatherCatV1.10B1784,2013-02-05 08:15:00,
2013-02-05 03:20:00,18.7,9.3,29.92,WSW,239,0.0,2.0,66,0.00,,,0.00,WeatherCatV1.10B1784,2013-02-05 08:20:00,
2013-02-05 03:24:00,18.6,9.5,29.92,WSW,239,0.0,1.0,67,0.00,,,0.00,WeatherCatV1.10B1784,2013-02-05 08:24:00,
2013-02-05 03:29:00,18.5,9.4,29.92,WSW,238,0.0,1.0,67,0.00,,,0.00,WeatherCatV1.10B1784,2013-02-05 08:29:00,
2013-02-05 03:34:00,18.5,9.7,29.92,WSW,238,0.0,0.0,68,0.00,,,0.00,WeatherCatV1.10B1784,2013-02-05 08:34:00,
2013-02-05 03:39:00,18.4,9.6,29.92,WSW,238,0.0,0.0,68,0.00,,,0.00,WeatherCatV1.10B1784,2013-02-05 08:39:00,
2013-02-05 03:44:00,18.5,9.7,29.92,WSW,238,0.0,0.0,68,0.00,,,0.00,WeatherCatV1.10B1784,2013-02-05 08:44:00,
2013-02-05 03:49:00,18.5,9.7,29.92,WSW,238,0.0,0.0,68,0.00,,,0.00,WeatherCatV1.10B1784,2013-02-05 08:49:00,
2013-02-05 03:54:00,18.5,9.7,29.92,WSW,238,0.0,0.0,68,0.00,,,0.00,WeatherCatV1.10B1784,2013-02-05 08:54:00,
2013-02-05 03:59:00,18.6,9.8,29.92,WSW,238,0.0,0.0,68,0.00,,,0.00,WeatherCatV1.10B1784,2013-02-05 08:59:00,
2013-02-05 04:04:00,18.6,9.8,29.92,WSW,238,0.0,0.0,68,0.00,,,0.00,WeatherCatV1.10B1784,2013-02-05 09:04:00,
2013-02-05 04:09:00,18.6,9.8,29.92,WSW,238,0.0,0.0,68,0.00,,,0.00,WeatherCatV1.10B1784,2013-02-05 09:09:00,
2013-02-05 04:14:00,18.6,9.8,29.92,WSW,238,0.0,3.0,68,0.00,,,0.00,WeatherCatV1.10B1784,2013-02-05 09:14:00,
2013-02-05 04:19:00,18.7,9.9,29.92,WSW,238,0.0,0.0,68,0.00,,,0.00,WeatherCatV1.10B1784,2013-02-05 09:19:00,
2013-02-05 04:24:00,18.8,10.0,29.92,WSW,238,3.0,3.0,68,0.00,,,0.00,WeatherCatV1.10B1784,2013-02-05 09:24:00,
2013-02-05 04:29:00,18.8,10.0,29.93,WSW,238,0.0,0.0,68,0.00,,,0.00,WeatherCatV1.10B1784,2013-02-05 09:29:00,
2013-02-05 04:34:00,18.8,10.0,29.93,WSW,238,0.0,0.0,68,0.00,,,0.00,WeatherCatV1.10B1784,2013-02-05 09:34:00,
2013-02-05 04:39:00,18.8,10.0,29.93,WSW,238,0.0,4.0,68,0.00,,,0.00,WeatherCatV1.10B1784,2013-02-05 09:39:00,
2013-02-05 04:44:00,18.8,10.0,29.93,WSW,238,0.0,0.0,68,0.00,,,0.00,WeatherCatV1.10B1784,2013-02-05 09:44:00,
2013-02-05 04:49:00,18.9,10.4,29.93,WSW,238,0.0,0.0,69,0.00,,,0.00,WeatherCatV1.10B1784,2013-02-05 09:49:00,
2013-02-05 04:54:00,19.0,10.2,29.93,WSW,238,3.0,3.0,68,0.00,,,0.00,WeatherCatV1.10B1784,2013-02-05 09:54:00,
2013-02-05 04:59:00,19.0,10.2,29.93,WSW,238,0.0,0.0,68,0.00,,,0.00,WeatherCatV1.10B1784,2013-02-05 09:59:00,
2013-02-05 05:04:00,19.1,10.3,29.93,WSW,238,0.0,1.0,68,0.00,,,0.00,WeatherCatV1.10B1784,2013-02-05 10:04:00,
2013-02-05 05:09:00,19.2,10.1,29.93,WSW,238,0.0,4.0,67,0.00,,,0.00,WeatherCatV1.10B1784,2013-02-05 10:09:00,
2013-02-05 05:14:00,19.2,10.4,29.93,WSW,238,3.0,4.0,68,0.00,,,0.00,WeatherCatV1.10B1784,2013-02-05 10:14:00,
2013-02-05 05:19:00,19.2,10.4,29.93,WSW,238,0.0,1.0,68,0.00,,,0.00,WeatherCatV1.10B1784,2013-02-05 10:19:00,
2013-02-05 05:24:00,19.2,10.4,29.93,WSW,238,0.0,1.0,68,0.00,,,0.00,WeatherCatV1.10B1784,2013-02-05 10:24:00,
2013-02-05 05:29:00,19.2,10.4,29.93,WSW,238,2.0,2.0,68,0.00,,,0.00,WeatherCatV1.10B1784,2013-02-05 10:29:00,
2013-02-05 05:34:00,19.2,10.4,29.93,WSW,238,2.0,2.0,68,0.00,,,0.00,WeatherCatV1.10B1784,2013-02-05 10:34:00,
2013-02-05 05:39:00,19.2,10.4,29.93,WSW,238,0.0,2.0,68,0.00,,,0.00,WeatherCatV1.10B1784,2013-02-05 10:39:00,
2013-02-05 05:44:00,19.2,10.4,29.93,WSW,239,1.0,4.0,68,0.00,,,0.00,WeatherCatV1.10B1784,2013-02-05 10:44:00,
2013-02-05 05:49:00,19.2,10.4,29.93,WSW,238,3.0,3.0,68,0.00,,,0.00,WeatherCatV1.10B1784,2013-02-05 10:49:00,
2013-02-05 05:54:00,19.2,10.4,29.93,SW,214,0.0,5.0,68,0.00,,,0.00,WeatherCatV1.10B1784,2013-02-05 10:54:00,
2013-02-05 05:59:00,19.2,10.4,29.94,SW,217,0.0,0.0,68,0.00,,,0.00,WeatherCatV1.10B1784,2013-02-05 10:59:00,
2013-02-05 06:04:00,19.2,10.4,29.94,SW,220,0.0,4.0,68,0.00,,,0.00,WeatherCatV1.10B1784,2013-02-05 11:04:00,
2013-02-05 06:09:00,19.2,10.4,29.93,SW,220,2.0,3.0,68,0.00,,,0.00,WeatherCatV1.10B1784,2013-02-05 11:09:00,
2013-02-05 06:14:00,19.1,10.3,29.94,SW,220,0.0,0.0,68,0.00,,,0.00,WeatherCatV1.10B1784,2013-02-05 11:14:00,
2013-02-05 06:19:00,19.1,10.6,29.94,SW,223,2.0,3.0,69,0.00,,,0.00,WeatherCatV1.10B1784,2013-02-05 11:19:00,
2013-02-05 06:24:00,19.1,10.6,29.93,SW,223,0.0,3.0,69,0.00,,,0.00,WeatherCatV1.10B1784,2013-02-05 11:24:00,
2013-02-05 06:29:00,19.1,10.6,29.94,SW,229,1.0,5.0,69,0.00,,,0.00,WeatherCatV1.10B1784,2013-02-05 11:29:00,
2013-02-05 06:34:00,19.0,10.5,29.94,SW,229,0.0,4.0,69,0.00,,,0.00,WeatherCatV1.10B1784,2013-02-05 11:34:00,
2013-02-05 06:39:00,19.0,10.9,29.94,SW,229,0.0,0.0,70,0.00,,,0.00,WeatherCatV1.10B1784,2013-02-05 11:39:00,
2013-02-05 06:44:00,19.0,10.9,29.94,SW,229,0.0,0.0,70,0.00,,,0.00,WeatherCatV1.10B1784,2013-02-05 11:44:00,
2013-02-05 06:49:00,18.9,10.8,29.94,SW,229,1.0,1.0,70,0.00,,,0.00,WeatherCatV1.10B1784,2013-02-05 11:49:00,
2013-02-05 06:54:00,18.9,10.8,29.94,SW,229,0.0,0.0,70,0.00,,,0.00,WeatherCatV1.10B1784,2013-02-05 11:54:00,
2013-02-05 06:59:00,18.8,11.0,29.94,SW,229,0.0,0.0,71,0.00,,,0.00,WeatherCatV1.10B1784,2013-02-05 11:59:00,
2013-02-05 07:04:00,18.8,10.7,29.95,SW,229,0.0,0.0,70,0.00,,,0.00,WeatherCatV1.10B1784,2013-02-05 12:04:00,
2013-02-05 07:09:00,18.8,11.0,29.95,SW,229,0.0,0.0,71,0.00,,,0.00,WeatherCatV1.10B1784,2013-02-05 12:09:00,
2013-02-05 07:14:00,18.7,10.9,29.95,SW,229,0.0,0.0,71,0.00,,,0.00,WeatherCatV1.10B1784,2013-02-05 12:14:00,
2013-02-05 07:19:00,18.7,10.9,29.95,SW,229,0.0,0.0,71,0.00,,,0.00,WeatherCatV1.10B1784,2013-02-05 12:19:00,
2013-02-05 07:24:00,18.7,10.9,29.95,SW,229,0.0,1.0,71,0.00,,,0.00,WeatherCatV1.10B1784,2013-02-05 12:24:00,
2013-02-05 07:29:00,18.7,10.9,29.96,SW,229,0.0,0.0,71,0.00,,,0.00,WeatherCatV1.10B1784,2013-02-05 12:29:00,
2013-02-05 07:34:00,18.7,11.2,29.96,SW,229,0.0,0.0,72,0.00,,,0.00,WeatherCatV1.10B1784,2013-02-05 12:34:00,
2013-02-05 07:39:00,18.8,11.3,29.97,SW,229,0.0,0.0,72,0.00,,,0.00,WeatherCatV1.10B1784,2013-02-05 12:39:00,
2013-02-05 07:44:00,18.9,11.4,29.97,SW,229,0.0,0.0,72,0.00,,,0.00,WeatherCatV1.10B1784,2013-02-05 12:44:00,
2013-02-05 07:49:00,19.1,11.3,29.98,SW,229,1.0,1.0,71,0.00,,,0.00,WeatherCatV1.10B1784,2013-02-05 12:49:00,
2013-02-05 07:54:00,19.3,11.5,29.98,SW,229,0.0,2.0,71,0.00,,,0.00,WeatherCatV1.10B1784,2013-02-05 12:54:00,
2013-02-05 07:59:00,19.5,12.0,29.97,SW,229,0.0,0.0,72,0.00,,,0.00,WeatherCatV1.10B1784,2013-02-05 12:59:00,
2013-02-05 08:04:00,19.7,11.8,29.98,SW,229,0.0,0.0,71,0.00,,,0.00,WeatherCatV1.10B1784,2013-02-05 13:04:00,
2013-02-05 08:09:00,19.9,12.0,29.98,SW,229,0.0,2.0,71,0.00,,,0.00,WeatherCatV1.10B1784,2013-02-05 13:09:00,
2013-02-05 08:14:00,20.0,12.1,29.98,SW,229,0.0,0.0,71,0.00,,,0.00,WeatherCatV1.10B1784,2013-02-05 13:14:00,
2013-02-05 08:19:00,20.2,12.0,29.98,SW,229,0.0,2.0,70,0.00,,,0.00,WeatherCatV1.10B1784,2013-02-05 13:19:00,
2013-02-05 08:24:00,20.4,12.2,29.98,SW,229,0.0,0.0,70,0.00,,,0.00,WeatherCatV1.10B1784,2013-02-05 13:24:00,
2013-02-05 08:29:00,20.5,12.3,29.98,SW,229,0.0,0.0,70,0.00,,,0.00,WeatherCatV1.10B1784,2013-02-05 13:29:00,
2013-02-05 08:34:00,20.7,12.2,29.98,SW,229,0.0,0.0,69,0.00,,,0.00,WeatherCatV1.10B1784,2013-02-05 13:34:00,
2013-02-05 08:39:00,20.8,12.3,29.98,SW,229,0.0,0.0,69,0.00,,,0.00,WeatherCatV1.10B1784,2013-02-05 13:39:00,
2013-02-05 08:44:00,21.0,12.5,29.98,SW,229,0.0,0.0,69,0.00,,,0.00,WeatherCatV1.10B1784,2013-02-05 13:44:00,
2013-02-05 08:49:00,21.1,11.9,29.98,SW,229,0.0,0.0,67,0.00,,,0.00,WeatherCatV1.10B1784,2013-02-05 13:49:00,
2013-02-05 08:54:00,21.2,12.0,29.98,SW,229,0.0,2.0,67,0.00,,,0.00,WeatherCatV1.10B1784,2013-02-05 13:54:00,
2013-02-05 08:59:00,21.3,11.7,29.98,SW,229,0.0,0.0,66,0.00,,,0.00,WeatherCatV1.10B1784,2013-02-05 13:59:00,
2013-02-05 09:04:00,21.5,11.6,29.98,SW,229,2.0,2.0,65,0.00,,,0.00,WeatherCatV1.10B1784,2013-02-05 14:04:00,
2013-02-05 09:09:00,21.6,11.7,29.98,SW,229,1.0,2.0,65,0.00,,,0.00,WeatherCatV1.10B1784,2013-02-05 14:09:00,
2013-02-05 09:14:00,21.7,11.4,29.98,SW,229,0.0,0.0,64,0.00,,,0.00,WeatherCatV1.10B1784,2013-02-05 14:14:00,
2013-02-05 09:19:00,21.9,11.6,29.98,SW,229,0.0,2.0,64,0.00,,,0.00,WeatherCatV1.10B1784,2013-02-05 14:19:00,
2013-02-05 09:24:00,22.0,11.4,29.98,SW,229,2.0,3.0,63,0.00,,,0.00,WeatherCatV1.10B1784,2013-02-05 14:24:00,
2013-02-05 09:29:00,22.1,11.5,29.98,SW,229,0.0,0.0,63,0.00,,,0.00,WeatherCatV1.10B1784,2013-02-05 14:29:00,
2013-02-05 09:34:00,22.1,11.5,29.98,SW,229,0.0,1.0,63,0.00,,,0.00,WeatherCatV1.10B1784,2013-02-05 14:34:00,
2013-02-05 09:39:00,22.4,11.4,29.99,SW,229,0.0,1.0,62,0.00,,,0.00,WeatherCatV1.10B1784,2013-02-05 14:39:00,
2013-02-05 09:44:00,22.6,11.6,29.99,SW,229,1.0,5.0,62,0.00,,,0.00,WeatherCatV1.10B1784,2013-02-05 14:44:00,
2013-02-05 09:49:00,22.9,11.9,29.99,SW,229,0.0,1.0,62,0.00,,,0.00,WeatherCatV1.10B1784,2013-02-05 14:49:00,
2013-02-05 09:54:00,23.0,11.6,29.99,SW,229,0.0,0.0,61,0.00,,,0.00,WeatherCatV1.10B1784,2013-02-05 14:54:00,
2013-02-05 09:59:00,23.2,11.8,29.99,SW,229,1.0,2.0,61,0.00,,,0.00,WeatherCatV1.10B1784,2013-02-05 14:59:00,
2013-02-05 10:04:00,23.4,11.2,29.99,SW,229,1.0,3.0,59,0.00,,,0.00,WeatherCatV1.10B1784,2013-02-05 15:04:00,
2013-02-05 10:09:00,23.5,11.3,29.99,SW,229,0.0,1.0,59,0.00,,,0.00,WeatherCatV1.10B1784,2013-02-05 15:09:00,
2013-02-05 10:14:00,23.6,11.4,29.99,SW,229,0.0,2.0,59,0.00,,,0.00,WeatherCatV1.10B1784,2013-02-05 15:14:00,
2013-02-05 10:19:00,23.8,11.6,29.99,SW,229,0.0,2.0,59,0.00,,,0.00,WeatherCatV1.10B1784,2013-02-05 15:19:00,
2013-02-05 10:24:00,24.2,12.0,29.99,SW,229,1.0,2.0,59,0.00,,,0.00,WeatherCatV1.10B1784,2013-02-05 15:24:00,
2013-02-05 10:29:00,24.0,11.8,29.99,SW,229,1.0,1.0,59,0.00,,,0.00,WeatherCatV1.10B1784,2013-02-05 15:29:00,
2013-02-05 10:34:00,23.9,11.7,29.99,SW,229,0.0,0.0,59,0.00,,,0.00,WeatherCatV1.10B1784,2013-02-05 15:34:00,
2013-02-05 10:39:00,24.1,11.9,29.98,SW,229,0.0,0.0,59,0.00,,,0.00,WeatherCatV1.10B1784,2013-02-05 15:39:00,
2013-02-05 10:44:00,24.6,12.3,29.98,SW,229,0.0,2.0,59,0.00,,,0.00,WeatherCatV1.10B1784,2013-02-05 15:44:00,
2013-02-05 10:49:00,24.6,11.6,29.98,SW,229,0.0,1.0,57,0.00,,,0.00,WeatherCatV1.10B1784,2013-02-05 15:49:00,
2013-02-05 10:54:00,24.8,11.8,29.98,SW,229,1.0,2.0,57,0.00,,,0.00,WeatherCatV1.10B1784,2013-02-05 15:54:00,
2013-02-05 10:59:00,24.9,11.5,29.98,SW,229,2.0,2.0,56,0.00,,,0.00,WeatherCatV1.10B1784,2013-02-05 15:59:00,
2013-02-05 11:04:00,25.0,11.1,29.98,SW,229,0.0,2.0,55,0.00,,,0.00,WeatherCatV1.10B1784,2013-02-05 16:04:00,
2013-02-05 11:09:00,25.3,11.8,29.98,SW,229,3.0,3.0,56,0.00,,,0.00,WeatherCatV1.10B1784,2013-02-05 16:09:00,
2013-02-05 11:14:00,25.5,12.0,29.98,SW,229,3.0,3.0,56,0.00,,,0.00,WeatherCatV1.10B1784,2013-02-05 16:14:00,
2013-02-05 11:19:00,25.6,12.1,29.98,SW,229,0.0,1.0,56,0.00,,,0.00,WeatherCatV1.10B1784,2013-02-05 16:19:00,
2013-02-05 11:24:00,26.0,12.5,29.97,SW,229,0.0,2.0,56,0.00,,,0.00,WeatherCatV1.10B1784,2013-02-05 16:24:00,
2013-02-05 11:29:00,26.2,12.3,29.97,SW,229,2.0,2.0,55,0.00,,,0.00,WeatherCatV1.10B1784,2013-02-05 16:29:00,
2013-02-05 11:34:00,26.1,11.8,29.97,SW,229,1.0,1.0,54,0.00,,,0.00,WeatherCatV1.10B1784,2013-02-05 16:34:00,
2013-02-05 11:39:00,26.1,11.8,29.97,SW,229,0.0,2.0,54,0.00,,,0.00,WeatherCatV1.10B1784,2013-02-05 16:39:00,
2013-02-05 11:44:00,26.3,11.9,29.96,SW,229,0.0,0.0,54,0.00,,,0.00,WeatherCatV1.10B1784,2013-02-05 16:44:00,
2013-02-05 11:49:00,26.7,12.3,29.96,SW,229,0.0,3.0,54,0.00,,,0.00,WeatherCatV1.10B1784,2013-02-05 16:49:00,
2013-02-05 11:54:00,26.6,11.8,29.96,SW,229,0.0,0.0,53,0.00,,,0.00,WeatherCatV1.10B1784,2013-02-05 16:54:00,
2013-02-05 11:59:00,26.7,12.3,29.95,SW,229,0.0,2.0,54,0.00,,,0.00,WeatherCatV1.10B1784,2013-02-05 16:59:00,
2013-02-05 12:04:00,26.6,12.2,29.95,SW,229,0.0,1.0,54,0.00,,,0.00,WeatherCatV1.10B1784,2013-02-05 17:04:00,
2013-02-05 12:09:00,26.8,12.4,29.95,SW,229,0.0,0.0,54,0.00,,,0.00,WeatherCatV1.10B1784,2013-02-05 17:09:00,
2013-02-05 12:14:00,27.4,12.5,29.95,SW,225,3.0,6.0,53,0.00,,,0.00,WeatherCatV1.10B1784,2013-02-05 17:14:00,
2013-02-05 12:19:00,27.3,12.0,29.95,SW,225,3.0,4.0,52,0.00,,,0.00,WeatherCatV1.10B1784,2013-02-05 17:19:00,
2013-02-05 12:24:00,27.1,12.3,29.95,SW,226,0.0,3.0,53,0.00,,,0.00,WeatherCatV1.10B1784,2013-02-05 17:24:00,
2013-02-05 12:29:00,27.2,12.8,29.95,South,191,1.0,4.0,54,0.00,,,0.00,WeatherCatV1.10B1784,2013-02-05 17:29:00,
2013-02-05 12:34:00,27.8,12.9,29.95,South,177,0.0,3.0,53,0.00,,,0.00,WeatherCatV1.10B1784,2013-02-05 17:34:00,
2013-02-05 12:39:00,28.2,12.9,29.94,South,177,0.0,2.0,52,0.00,,,0.00,WeatherCatV1.10B1784,2013-02-05 17:39:00,
2013-02-05 12:44:00,28.5,13.1,29.94,South,177,0.0,0.0,52,0.00,,,0.00,WeatherCatV1.10B1784,2013-02-05 17:44:00,
2013-02-05 12:49:00,28.9,13.1,29.94,South,177,0.0,0.0,51,0.00,,,0.00,WeatherCatV1.10B1784,2013-02-05 17:49:00,
2013-02-05 12:54:00,29.0,13.2,29.94,SSE,159,0.0,0.0,51,0.00,,,0.00,WeatherCatV1.10B1784,2013-02-05 17:54:00,
2013-02-05 12:59:00,29.1,13.3,29.93,SSE,157,0.0,0.0,51,0.00,,,0.00,WeatherCatV1.10B1784,2013-02-05 17:59:00,
2013-02-05 13:04:00,29.0,12.7,29.93,SSE,157,0.0,0.0,50,0.00,,,0.00,WeatherCatV1.10B1784,2013-02-05 18:04:00,
2013-02-05 13:09:00,28.6,12.3,29.93,SSE,156,0.0,1.0,50,0.00,,,0.00,WeatherCatV1.10B1784,2013-02-05 18:09:00,
2013-02-05 13:14:00,28.9,13.1,29.93,SSE,163,2.0,4.0,51,0.00,,,0.00,WeatherCatV1.10B1784,2013-02-05 18:14:00,
2013-02-05 13:19:00,28.7,12.9,29.93,South,179,0.0,4.0,51,0.00,,,0.00,WeatherCatV1.10B1784,2013-02-05 18:19:00,
2013-02-05 13:24:00,28.7,12.9,29.92,South,171,0.0,0.0,51,0.00,,,0.00,WeatherCatV1.10B1784,2013-02-05 18:24:00,
2013-02-05 13:29:00,28.9,13.1,29.93,South,172,0.0,0.0,51,0.00,,,0.00,WeatherCatV1.10B1784,2013-02-05 18:29:00,
2013-02-05 13:34:00,29.3,13.4,29.93,South,172,0.0,0.0,51,0.00,,,0.00,WeatherCatV1.10B1784,2013-02-05 18:34:00,
2013-02-05 13:39:00,29.5,13.6,29.93,SE,127,0.0,4.0,51,0.00,,,0.00,WeatherCatV1.10B1784,2013-02-05 18:39:00,
2013-02-05 13:44:00,29.3,13.9,29.93,ESE,118,1.0,2.0,52,0.00,,,0.00,WeatherCatV1.10B1784,2013-02-05 18:44:00,
2013-02-05 13:49:00,29.0,14.0,29.93,ESE,118,0.0,4.0,53,0.00,,,0.00,WeatherCatV1.10B1784,2013-02-05 18:49:00,
2013-02-05 13:54:00,29.4,14.0,29.93,SE,138,1.0,5.0,52,0.00,,,0.00,WeatherCatV1.10B1784,2013-02-05 18:54:00,
2013-02-05 13:59:00,29.5,14.1,29.93,South,171,0.0,4.0,52,0.00,,,0.00,WeatherCatV1.10B1784,2013-02-05 18:59:00,
2013-02-05 14:04:00,29.5,14.1,29.93,SSE,163,4.0,4.0,52,0.00,,,0.00,WeatherCatV1.10B1784,2013-02-05 19:04:00,
2013-02-05 14:09:00,29.6,14.2,29.93,SE,144,1.0,8.0,52,0.00,,,0.00,WeatherCatV1.10B1784,2013-02-05 19:09:00,
2013-02-05 14:14:00,29.5,14.5,29.93,SE,124,0.0,0.0,53,0.00,,,0.00,WeatherCatV1.10B1784,2013-02-05 19:14:00,
2013-02-05 14:19:00,29.5,14.1,29.93,SE,125,0.0,3.0,52,0.00,,,0.00,WeatherCatV1.10B1784,2013-02-05 19:19:00,
2013-02-05 14:24:00,29.6,14.6,29.93,SE,127,0.0,3.0,53,0.00,,,0.00,WeatherCatV1.10B1784,2013-02-05 19:24:00,
2013-02-05 14:29:00,29.8,14.8,29.93,SE,127,0.0,5.0,53,0.00,,,0.00,WeatherCatV1.10B1784,2013-02-05 19:29:00,
2013-02-05 14:34:00,30.1,14.6,29.92,SE,125,1.0,6.0,52,0.00,,,0.00,WeatherCatV1.10B1784,2013-02-05 19:34:00,
2013-02-05 14:39:00,30.2,14.7,29.92,East,86,0.0,5.0,52,0.00,,,0.00,WeatherCatV1.10B1784,2013-02-05 19:39:00,
2013-02-05 14:44:00,30.3,14.8,29.92,East,94,4.0,4.0,52,0.00,,,0.00,WeatherCatV1.10B1784,2013-02-05 19:44:00,
2013-02-05 14:49:00,30.6,14.6,29.92,South,171,3.0,4.0,51,0.00,,,0.00,WeatherCatV1.10B1784,2013-02-05 19:49:00,
2013-02-05 14:54:00,31.1,14.7,29.92,SE,132,0.0,6.0,50,0.00,,,0.00,WeatherCatV1.10B1784,2013-02-05 19:54:00,
2013-02-05 14:59:00,31.1,14.7,29.92,SSE,150,5.0,8.0,50,0.00,,,0.00,WeatherCatV1.10B1784,2013-02-05 19:59:00,
2013-02-05 15:04:00,31.0,14.6,29.92,South,170,3.0,8.0,50,0.00,,,0.00,WeatherCatV1.10B1784,2013-02-05 20:04:00,
2013-02-05 15:09:00,31.0,15.0,29.92,SE,146,1.0,4.0,51,0.00,,,0.00,WeatherCatV1.10B1784,2013-02-05 20:09:00,
2013-02-05 15:14:00,31.1,15.1,29.92,SE,129,0.0,3.0,51,0.00,,,0.00,WeatherCatV1.10B1784,2013-02-05 20:14:00,
2013-02-05 15:19:00,30.8,14.8,29.91,SE,136,0.0,8.0,51,0.00,,,0.00,WeatherCatV1.10B1784,2013-02-05 20:19:00,
2013-02-05 15:24:00,30.8,14.8,29.91,ESE,122,0.0,3.0,51,0.00,,,0.00,WeatherCatV1.10B1784,2013-02-05 20:24:00,
2013-02-05 15:29:00,31.0,15.0,29.91,SSE,151,2.0,4.0,51,0.00,,,0.00,WeatherCatV1.10B1784,2013-02-05 20:29:00,
2013-02-05 15:34:00,31.2,15.2,29.91,SSE,152,3.0,5.0,51,0.00,,,0.00,WeatherCatV1.10B1784,2013-02-05 20:34:00,
2013-02-05 15:39:00,31.2,15.2,29.91,SE,146,1.0,1.0,51,0.00,,,0.01,WeatherCatV1.10B1784,2013-02-05 20:39:00,
2013-02-05 15:44:00,30.9,14.9,29.91,SE,131,3.0,4.0,51,0.00,,,0.01,WeatherCatV1.10B1784,2013-02-05 20:44:00,
2013-02-05 15:49:00,30.6,15.1,29.90,SSE,165,0.0,3.0,52,0.00,,,0.01,WeatherCatV1.10B1784,2013-02-05 20:49:00,
2013-02-05 15:54:00,30.6,15.1,29.91,SSE,164,2.0,2.0,52,0.00,,,0.01,WeatherCatV1.10B1784,2013-02-05 20:54:00,
2013-02-05 15:59:00,30.5,15.0,29.90,SSE,163,1.0,4.0,52,0.00,,,0.01,WeatherCatV1.10B1784,2013-02-05 20:59:00,
2013-02-05 16:04:00,30.0,15.0,29.91,SSE,152,0.0,4.0,53,0.00,,,0.01,WeatherCatV1.10B1784,2013-02-05 21:04:00,
2013-02-05 16:09:00,29.3,14.7,29.90,SE,124,2.0,2.0,54,0.00,,,0.01,WeatherCatV1.10B1784,2013-02-05 21:09:00,
2013-02-05 16:14:00,28.7,14.6,29.90,SE,127,1.0,4.0,55,0.00,,,0.01,WeatherCatV1.10B1784,2013-02-05 21:14:00,
2013-02-05 16:19:00,28.3,14.6,29.91,SE,127,0.0,1.0,56,0.00,,,0.01,WeatherCatV1.10B1784,2013-02-05 21:19:00,
2013-02-05 16:24:00,28.0,14.8,29.91,SE,127,1.0,3.0,57,0.00,,,0.01,WeatherCatV1.10B1784,2013-02-05 21:24:00,
2013-02-05 16:29:00,27.7,14.5,29.91,SE,127,0.0,3.0,57,0.00,,,0.01,WeatherCatV1.10B1784,2013-02-05 21:29:00,
2013-02-05 16:34:00,27.4,15.0,29.91,SE,129,1.0,4.0,59,0.00,,,0.01,WeatherCatV1.10B1784,2013-02-05 21:34:00,
2013-02-05 16:39:00,27.1,15.1,29.91,SE,129,0.0,3.0,60,0.00,,,0.01,WeatherCatV1.10B1784,2013-02-05 21:39:00,
2013-02-05 16:44:00,26.9,14.9,29.92,SE,128,0.0,4.0,60,0.00,,,0.01,WeatherCatV1.10B1784,2013-02-05 21:44:00,
2013-02-05 16:49:00,26.7,15.1,29.92,SE,129,0.0,2.0,61,0.00,,,0.01,WeatherCatV1.10B1784,2013-02-05 21:49:00,
2013-02-05 16:54:00,26.5,15.3,29.92,SE,129,2.0,5.0,62,0.00,,,0.01,WeatherCatV1.10B1784,2013-02-05 21:54:00,
2013-02-05 16:59:00,26.3,15.4,29.91,SE,129,0.0,3.0,63,0.00,,,0.01,WeatherCatV1.10B1784,2013-02-05 21:59:00,
2013-02-05 17:04:00,26.2,15.3,29.91,SE,129,2.0,3.0,63,0.00,,,0.01,WeatherCatV1.10B1784,2013-02-05 22:04:00,
2013-02-05 17:09:00,26.0,15.5,29.91,SE,129,0.0,2.0,64,0.00,,,0.01,WeatherCatV1.10B1784,2013-02-05 22:09:00,
2013-02-05 17:14:00,25.9,15.4,29.91,SE,129,0.0,4.0,64,0.00,,,0.01,WeatherCatV1.10B1784,2013-02-05 22:14:00,
2013-02-05 17:19:00,25.8,15.3,29.90,SE,129,1.0,3.0,64,0.00,,,0.01,WeatherCatV1.10B1784,2013-02-05 22:19:00,
2013-02-05 17:24:00,25.7,15.6,29.90,SE,129,0.0,1.0,65,0.00,,,0.01,WeatherCatV1.10B1784,2013-02-05 22:24:00,
2013-02-05 17:29:00,25.6,15.8,29.90,SE,129,0.0,0.0,66,0.00,,,0.01,WeatherCatV1.10B1784,2013-02-05 22:29:00,
2013-02-05 17:34:00,25.5,15.7,29.91,SE,129,0.0,0.0,66,0.00,,,0.01,WeatherCatV1.10B1784,2013-02-05 22:34:00,
2013-02-05 17:39:00,25.4,16.0,29.91,SE,131,0.0,4.0,67,0.00,,,0.01,WeatherCatV1.10B1784,2013-02-05 22:39:00,
2013-02-05 17:44:00,25.3,16.2,29.91,SE,131,0.0,3.0,68,0.00,,,0.01,WeatherCatV1.10B1784,2013-02-05 22:44:00,
2013-02-05 17:49:00,25.2,16.1,29.91,SE,131,0.0,2.0,68,0.00,,,0.01,WeatherCatV1.10B1784,2013-02-05 22:49:00,
2013-02-05 17:54:00,25.1,16.0,29.91,SE,131,5.0,5.0,68,0.00,,,0.01,WeatherCatV1.10B1784,2013-02-05 22:54:00,
2013-02-05 17:59:00,25.0,16.3,29.92,SE,131,1.0,4.0,69,0.00,,,0.01,WeatherCatV1.10B1784,2013-02-05 22:59:00,
2013-02-05 18:04:00,24.9,16.2,29.92,SE,131,0.0,4.0,69,0.00,,,0.01,WeatherCatV1.10B1784,2013-02-05 23:04:00,
2013-02-05 18:09:00,24.8,16.4,29.92,SE,131,0.0,6.0,70,0.00,,,0.01,WeatherCatV1.10B1784,2013-02-05 23:09:00,
2013-02-05 18:14:00,24.8,16.4,29.91,SE,131,3.0,4.0,70,0.00,,,0.01,WeatherCatV1.10B1784,2013-02-05 23:14:00,
2013-02-05 18:19:00,24.7,16.7,29.91,South,173,3.0,3.0,71,0.00,,,0.01,WeatherCatV1.10B1784,2013-02-05 23:19:00,
2013-02-05 18:24:00,24.7,16.7,29.91,SSE,163,0.0,4.0,71,0.00,,,0.01,WeatherCatV1.10B1784,2013-02-05 23:24:00,
2013-02-05 18:29:00,24.6,16.6,29.91,SSE,163,2.0,2.0,71,0.00,,,0.01,WeatherCatV1.10B1784,2013-02-05 23:29:00,
2013-02-05 18:34:00,24.6,16.9,29.92,SSE,163,0.0,1.0,72,0.00,,,0.01,WeatherCatV1.10B1784,2013-02-05 23:34:00,
2013-02-05 18:39:00,24.5,16.8,29.92,SSE,163,0.0,3.0,72,0.00,,,0.01,WeatherCatV1.10B1784,2013-02-05 23:39:00,
2013-02-05 18:44:00,24.5,16.8,29.92,SSE,163,0.0,0.0,72,0.00,,,0.01,WeatherCatV1.10B1784,2013-02-05 23:44:00,
2013-02-05 18:49:00,24.6,16.9,29.92,SSE,163,1.0,2.0,72,0.00,,,0.01,WeatherCatV1.10B1784,2013-02-05 23:49:00,
2013-02-05 18:54:00,24.6,16.9,29.92,SSE,163,4.0,4.0,72,0.00,,,0.01,WeatherCatV1.10B1784,2013-02-05 23:54:00,
2013-02-05 18:59:00,24.6,17.2,29.92,SSE,160,4.0,4.0,73,0.00,,,0.01,WeatherCatV1.10B1784,2013-02-05 23:59:00,
2013-02-05 19:04:00,24.6,17.2,29.92,SSE,161,0.0,3.0,73,0.00,,,0.01,WeatherCatV1.10B1784,2013-02-06 00:04:00,
2013-02-05 19:09:00,24.7,17.3,29.92,SSE,160,1.0,2.0,73,0.00,,,0.01,WeatherCatV1.10B1784,2013-02-06 00:09:00,
2013-02-05 19:14:00,24.7,17.3,29.92,SSE,160,1.0,2.0,73,0.00,,,0.01,WeatherCatV1.10B1784,2013-02-06 00:14:00,
2013-02-05 19:19:00,24.7,17.3,29.92,SSE,160,0.0,2.0,73,0.00,,,0.01,WeatherCatV1.10B1784,2013-02-06 00:19:00,
2013-02-05 19:24:00,24.7,17.6,29.92,SSE,154,2.0,2.0,74,0.00,,,0.01,WeatherCatV1.10B1784,2013-02-06 00:24:00,
2013-02-05 19:29:00,24.7,17.6,29.92,SSE,154,0.0,0.0,74,0.00,,,0.01,WeatherCatV1.10B1784,2013-02-06 00:29:00,
2013-02-05 19:34:00,24.7,17.9,29.92,SSE,154,3.0,4.0,75,0.00,,,0.01,WeatherCatV1.10B1784,2013-02-06 00:34:00,
2013-02-05 19:39:00,24.6,17.8,29.92,SSE,155,0.0,1.0,75,0.00,,,0.01,WeatherCatV1.10B1784,2013-02-06 00:39:00,
2013-02-05 19:44:00,24.6,17.8,29.92,SSE,155,0.0,2.0,75,0.00,,,0.01,WeatherCatV1.10B1784,2013-02-06 00:44:00,
2013-02-05 19:49:00,24.6,17.8,29.92,SSE,155,1.0,3.0,75,0.00,,,0.01,WeatherCatV1.10B1784,2013-02-06 00:49:00,
2013-02-05 19:54:00,24.5,17.7,29.92,SSE,155,0.0,0.0,75,0.00,,,0.01,WeatherCatV1.10B1784,2013-02-06 00:54:00,
2013-02-05 19:59:00,24.5,17.7,29.92,SSE,155,0.0,0.0,75,0.00,,,0.01,WeatherCatV1.10B1784,2013-02-06 00:59:00,
2013-02-05 20:04:00,24.4,17.9,29.93,SSE,156,3.0,5.0,76,0.00,,,0.01,WeatherCatV1.10B1784,2013-02-06 01:04:00,
2013-02-05 20:09:00,24.3,17.8,29.93,SSE,156,0.0,1.0,76,0.00,,,0.01,WeatherCatV1.10B1784,2013-02-06 01:09:00,
2013-02-05 20:14:00,24.2,18.0,29.93,SSE,159,0.0,4.0,77,0.00,,,0.01,WeatherCatV1.10B1784,2013-02-06 01:14:00,
2013-02-05 20:19:00,24.2,18.0,29.93,SSE,157,0.0,0.0,77,0.00,,,0.01,WeatherCatV1.10B1784,2013-02-06 01:19:00,
2013-02-05 20:24:00,24.1,18.3,29.93,SSE,157,0.0,0.0,78,0.00,,,0.01,WeatherCatV1.10B1784,2013-02-06 01:24:00,
2013-02-05 20:29:00,24.1,18.5,29.93,SSE,158,3.0,4.0,79,0.00,,,0.01,WeatherCatV1.10B1784,2013-02-06 01:29:00,
2013-02-05 20:34:00,24.0,18.7,29.93,SSE,157,2.0,4.0,80,0.00,,,0.01,WeatherCatV1.10B1784,2013-02-06 01:34:00,
2013-02-05 20:39:00,23.9,18.9,29.93,SSE,157,0.0,1.0,81,0.00,,,0.01,WeatherCatV1.10B1784,2013-02-06 01:39:00,
2013-02-05 20:44:00,23.8,18.8,29.93,SSE,157,2.0,3.0,81,0.00,,,0.01,WeatherCatV1.10B1784,2013-02-06 01:44:00,
2013-02-05 20:49:00,23.8,19.1,29.93,SSE,157,0.0,0.0,82,0.00,,,0.01,WeatherCatV1.10B1784,2013-02-06 01:49:00,
2013-02-05 20:54:00,23.7,19.3,29.93,SSE,157,0.0,1.0,83,0.00,,,0.01,WeatherCatV1.10B1784,2013-02-06 01:54:00,
2013-02-05 20:59:00,23.7,19.3,29.93,SSE,157,0.0,0.0,83,0.00,,,0.01,WeatherCatV1.10B1784,2013-02-06 01:59:00,
2013-02-05 21:04:00,23.7,19.3,29.93,SSE,157,0.0,0.0,83,0.00,,,0.01,WeatherCatV1.10B1784,2013-02-06 02:04:00,
2013-02-05 21:09:00,23.6,19.5,29.93,SSE,157,0.0,0.0,84,0.00,,,0.01,WeatherCatV1.10B1784,2013-02-06 02:09:00,
2013-02-05 21:14:00,23.6,19.5,29.93,SSE,157,0.0,0.0,84,0.00,,,0.01,WeatherCatV1.10B1784,2013-02-06 02:14:00,
2013-02-05 21:19:00,23.6,19.8,29.93,SSE,157,0.0,0.0,85,0.00,,,0.01,WeatherCatV1.10B1784,2013-02-06 02:19:00,
2013-02-05 21:24:00,23.6,19.8,29.93,SSE,157,0.0,0.0,85,0.00,,,0.01,WeatherCatV1.10B1784,2013-02-06 02:24:00,
2013-02-05 21:29:00,23.5,19.9,29.93,SSE,157,0.0,0.0,86,0.00,,,0.01,WeatherCatV1.10B1784,2013-02-06 02:29:00,
2013-02-05 21:34:00,23.5,19.9,29.93,SSE,157,0.0,0.0,86,0.00,,,0.01,WeatherCatV1.10B1784,2013-02-06 02:34:00,
2013-02-05 21:39:00,23.5,19.9,29.93,SSE,157,0.0,0.0,86,0.00,,,0.01,WeatherCatV1.10B1784,2013-02-06 02:39:00,
2013-02-05 21:44:00,23.5,19.9,29.93,SSE,157,0.0,0.0,86,0.00,,,0.01,WeatherCatV1.10B1784,2013-02-06 02:44:00,
2013-02-05 21:49:00,23.5,19.9,29.93,SSE,157,0.0,0.0,86,0.00,,,0.01,WeatherCatV1.10B1784,2013-02-06 02:49:00,
2013-02-05 21:54:00,23.5,19.9,29.93,SSE,157,0.0,0.0,86,0.00,,,0.01,WeatherCatV1.10B1784,2013-02-06 02:54:00,
2013-02-05 21:59:00,23.5,20.2,29.93,SSE,157,0.0,1.0,87,0.00,,,0.01,WeatherCatV1.10B1784,2013-02-06 02:59:00,
2013-02-05 22:04:00,23.5,20.2,29.92,SSE,157,0.0,0.0,87,0.00,,,0.01,WeatherCatV1.10B1784,2013-02-06 03:04:00,
2013-02-05 22:09:00,23.5,20.2,29.92,SSE,157,0.0,0.0,87,0.00,,,0.01,WeatherCatV1.10B1784,2013-02-06 03:09:00,
2013-02-05 22:14:00,23.4,20.1,29.92,SSE,157,0.0,0.0,87,0.00,,,0.01,WeatherCatV1.10B1784,2013-02-06 03:14:00,
2013-02-05 22:19:00,23.4,20.1,29.92,SSE,157,0.0,0.0,87,0.00,,,0.01,WeatherCatV1.10B1784,2013-02-06 03:19:00,
2013-02-05 22:24:00,23.4,20.1,29.92,SSE,157,0.0,0.0,87,0.00,,,0.01,WeatherCatV1.10B1784,2013-02-06 03:24:00,
2013-02-05 22:29:00,23.3,20.3,29.92,SSE,157,0.0,0.0,88,0.00,,,0.01,WeatherCatV1.10B1784,2013-02-06 03:29:00,
2013-02-05 22:34:00,23.3,20.3,29.92,SSE,157,0.0,0.0,88,0.00,,,0.01,WeatherCatV1.10B1784,2013-02-06 03:34:00,
2013-02-05 22:40:00,23.3,20.3,29.92,SSE,157,0.0,0.0,88,0.00,,,0.01,WeatherCatV1.10B1784,2013-02-06 03:40:00,
2013-02-05 22:45:00,23.2,20.2,29.91,SSE,157,0.0,0.0,88,0.00,,,0.01,WeatherCatV1.10B1784,2013-02-06 03:45:00,
2013-02-05 22:50:00,23.2,20.2,29.91,SSE,157,0.0,0.0,88,0.00,,,0.01,WeatherCatV1.10B1784,2013-02-06 03:50:00,
2013-02-05 22:55:00,23.1,20.1,29.91,SSE,157,0.0,0.0,88,0.00,,,0.01,WeatherCatV1.10B1784,2013-02-06 03:55:00,
2013-02-05 23:00:00,23.0,20.0,29.91,SSE,157,0.0,0.0,88,0.00,,,0.01,WeatherCatV1.10B1784,2013-02-06 04:00:00,
2013-02-05 23:05:00,23.0,20.0,29.91,SSE,157,0.0,0.0,88,0.00,,,0.01,WeatherCatV1.10B1784,2013-02-06 04:05:00,
2013-02-05 23:10:00,23.0,20.0,29.91,SSE,157,0.0,0.0,88,0.00,,,0.01,WeatherCatV1.10B1784,2013-02-06 04:10:00,
2013-02-05 23:15:00,23.0,20.0,29.91,SSE,157,0.0,0.0,88,0.00,,,0.01,WeatherCatV1.10B1784,2013-02-06 04:15:00,
2013-02-05 23:20:00,23.0,20.0,29.91,SSE,157,0.0,0.0,88,0.00,,,0.01,WeatherCatV1.10B1784,2013-02-06 04:20:00,
2013-02-05 23:25:00,23.0,20.0,29.92,SSE,157,0.0,0.0,88,0.00,,,0.01,WeatherCatV1.10B1784,2013-02-06 04:25:00,
2013-02-05 23:30:00,23.0,20.0,29.92,SSE,157,0.0,0.0,88,0.00,,,0.01,WeatherCatV1.10B1784,2013-02-06 04:30:00,
2013-02-05 23:35:00,23.0,20.0,29.92,SSE,157,0.0,0.0,88,0.00,,,0.01,WeatherCatV1.10B1784,2013-02-06 04:35:00,
2013-02-05 23:40:00,23.1,20.4,29.92,SSE,157,0.0,0.0,89,0.00,,,0.01,WeatherCatV1.10B1784,2013-02-06 04:40:00,
2013-02-05 23:45:00,23.1,20.4,29.92,SSE,157,0.0,0.0,89,0.00,,,0.01,WeatherCatV1.10B1784,2013-02-06 04:45:00,
2013-02-05 23:50:00,23.1,20.4,29.92,SSE,157,0.0,0.0,89,0.00,,,0.01,WeatherCatV1.10B1784,2013-02-06 04:50:00,
2013-02-05 23:55:00,23.1,20.4,29.91,SSE,157,0.0,0.0,89,0.00,,,0.01,WeatherCatV1.10B1784,2013-02-06 04:55:00,